TimeEDT,TemperatureF,Dew PointF,Humidity,Sea Level PressureIn,VisibilityMPH,Wind Direction,Wind SpeedMPH,Gust SpeedMPH,PrecipitationIn,Events,Conditions,WindDirDegrees,DateUTC
12:54 AM,39.9,36.0,86,30.01,10.0,NNE,4.6,-,N/A,,Overcast,30,2013-04-11 04:54:00
1:54 AM,39.9,35.1,83,29.98,10.0,NE,9.2,-,N/A,,Overcast,50,2013-04-11 05:54:00
2:54 AM,39.9,35.1,83,30.02,10.0,North,6.9,-,N/A,,Overcast,10,2013-04-11 06:54:00
3:54 AM,39.9,33.1,77,30.06,10.0,NNE,11.5,-,N/A,,Overcast,30,2013-04-11 07:54:00
4:54 AM,37.9,28.9,70,30.07,10.0,ENE,16.1,-,0.00,,Light Drizzle,60,2013-04-11 08:54:00
5:54 AM,37.0,26.1,65,30.06,10.0,ENE,17.3,26.5,0.00,,Overcast,60,2013-04-11 09:54:00
6:54 AM,37.0,26.1,65,30.05,10.0,ENE,16.1,21.9,N/A,,Overcast,60,2013-04-11 10:54:00
7:54 AM,36.0,26.1,67,30.08,9.0,ENE,17.3,23.0,0.00,Rain,Light Rain,60,2013-04-11 11:54:00
8:54 AM,34.0,26.1,73,30.11,8.0,NE,13.8,23.0,0.04,Rain,Rain,40,2013-04-11 12:54:00
9:54 AM,34.0,28.0,79,30.16,8.0,NE,12.7,-,0.05,Rain,Light Rain,50,2013-04-11 13:54:00
10:54 AM,33.1,28.9,85,30.17,6.0,ENE,9.2,-,0.07,Rain,Light Rain,60,2013-04-11 14:54:00
11:08 AM,33.8,28.4,81,30.14,4.0,ENE,9.2,-,0.03,Rain,Rain,60,2013-04-11 15:08:00
11:33 AM,33.8,30.2,87,30.12,6.0,ENE,13.8,-,0.08,Rain,Light Rain,70,2013-04-11 15:33:00
11:54 AM,35.1,30.9,85,30.12,7.0,ENE,16.1,21.9,0.09,Rain,Light Rain,60,2013-04-11 15:54:00
12:54 PM,33.8,28.4,81,30.12,8.0,ENE,10.4,-,N/A,Rain,Light Rain,60,2013-04-11 16:54:00
1:54 PM,33.1,30.0,89,30.13,6.0,ENE,13.8,20.7,0.01,Rain,Light Rain,70,2013-04-11 17:54:00
2:09 PM,33.8,30.2,87,30.10,6.0,ENE,11.5,-,0.00,Rain,Light Rain,70,2013-04-11 18:09:00
2:54 PM,34.0,30.9,89,30.12,4.0,ENE,13.8,-,0.01,Rain,Light Rain,60,2013-04-11 18:54:00
3:54 PM,34.0,30.9,89,30.12,7.0,ENE,9.2,-,0.01,,Overcast,60,2013-04-11 19:54:00
4:54 PM,33.1,30.9,92,30.10,3.0,ENE,11.5,20.7,0.02,Rain,Light Rain,70,2013-04-11 20:54:00
5:54 PM,33.1,30.0,89,30.10,6.0,ENE,10.4,-,0.00,Rain,Light Rain,70,2013-04-11 21:54:00
6:54 PM,33.1,30.0,89,30.06,6.0,ENE,15.0,-,0.00,Rain,Light Rain,70,2013-04-11 22:54:00
7:54 PM,34.0,30.9,89,30.08,8.0,ENE,11.5,19.6,0.00,,Overcast,70,2013-04-11 23:54:00
8:04 PM,33.8,30.2,87,30.04,8.0,ENE,13.8,-,N/A,,Overcast,70,2013-04-12 00:04:00
8:54 PM,34.0,30.0,85,30.06,10.0,ENE,13.8,18.4,N/A,,Overcast,70,2013-04-12 00:54:00
9:54 PM,35.1,30.0,82,30.06,10.0,ENE,12.7,-,N/A,,Overcast,70,2013-04-12 01:54:00
10:36 PM,35.6,30.2,81,30.02,10.0,East,9.2,20.7,N/A,,Overcast,80,2013-04-12 02:36:00
10:54 PM,35.1,30.0,82,30.03,7.0,ENE,13.8,-,0.00,Rain,Light Rain,70,2013-04-12 02:54:00
11:54 PM,35.1,30.0,82,29.99,10.0,ENE,13.8,21.9,0.00,,Overcast,70,2013-04-12 03:54:00